| time (UTC) | temp F | wind direction | speed knots | gust knots | rain 1hr in | rain 24hr in | rain mn in | humidity % | barometer mb |
| 20260904233057 | 59 | 0 | 0.0 | 0.9 | 0.01 | 0.15 | 0.08 | 85 | 1014.4 |
| 20260904231548 | 59 | 0 | 0.0 | 0.9 | 0.01 | 0.15 | 0.08 | 83 | 1014.4 |
| 20260904230048 | 59 | 85 | 1.7 | 3.5 | 0.01 | 0.14 | 0.07 | 84 | 1014.4 |
| 20260904224553 | 59 | 175 | 0.9 | 1.7 | 0.01 | 0.14 | 0.07 | 82 | 1014.3 |
| 20260904223051 | 60 | 227 | 0.9 | 5.2 | 0.01 | 0.14 | 0.07 | 82 | 1014.4 |
| 20260904221558 | 60 | 181 | 1.7 | 6.1 | 0.01 | 0.14 | 0.07 | 79 | 1014.5 |
| 20260904220050 | 61 | 97 | 2.6 | 5.2 | 0.00 | 0.13 | 0.06 | 75 | 1014.3 |
| 20260904214604 | 63 | 256 | 2.6 | 11.3 | 0.00 | 0.13 | 0.06 | 70 | 1014.1 |
| 20260904213049 | 65 | 149 | 1.7 | 3.5 | 0.00 | 0.13 | 0.06 | 59 | 1013.5 |
| 20260904211605 | 66 | 0 | 0.0 | 3.5 | 0.00 | 0.13 | 0.06 | 58 | 1013.2 |
| 20260904210057 | 67 | 115 | 0.9 | 5.2 | 0.00 | 0.13 | 0.06 | 53 | 1013.0 |
| 20260904204549 | 67 | 86 | 2.6 | 5.2 | 0.00 | 0.13 | 0.06 | 55 | 1012.9 |
| 20260904203101 | 68 | 220 | 1.7 | 4.3 | 0.00 | 0.13 | 0.06 | 55 | 1012.7 |
| 20260904201559 | 68 | 280 | 1.7 | 7.0 | 0.00 | 0.13 | 0.06 | 53 | 1012.8 |
| 20260904194557 | 65 | 95 | 0.0 | 2.6 | 0.00 | 0.13 | 0.06 | 64 | 1013.1 |
| 20260904193053 | 65 | 0 | 0.0 | 0.0 | 0.00 | 0.13 | 0.06 | 69 | 1013.2 |
| 20260904191553 | 64 | 0 | 0.0 | 0.9 | 0.00 | 0.13 | 0.06 | 69 | 1013.3 |
| 20260904190056 | 64 | 53 | 0.9 | 2.6 | 0.00 | 0.13 | 0.06 | 67 | 1013.4 |
| 20260904184552 | 64 | 0 | 0.0 | 1.7 | 0.00 | 0.13 | 0.06 | 64 | 1013.3 |
| 20260904183058 | 65 | 34 | 0.0 | 2.6 | 0.00 | 0.13 | 0.06 | 70 | 1013.3 |
| 20260904181555 | 64 | 0 | 0.9 | 5.2 | 0.00 | 0.13 | 0.06 | 63 | 1013.2 |
| 20260904180052 | 63 | 330 | 1.7 | 4.3 | 0.00 | 0.13 | 0.06 | 69 | 1013.2 |
| 20260904174605 | 62 | 69 | 1.7 | 6.1 | 0.00 | 0.13 | 0.06 | 80 | 1013.2 |
| 20260904173101 | 61 | 0 | 0.0 | 0.0 | 0.00 | 0.13 | 0.06 | 82 | 1013.1 |
| 20260904171600 | 59 | 0 | 0.0 | 0.0 | 0.00 | 0.13 | 0.06 | 89 | 1013.0 |
| 20260904170054 | 57 | 0 | 0.0 | 0.0 | 0.00 | 0.13 | 0.06 | 90 | 1013.1 |
| 20260904164552 | 56 | 0 | 0.0 | 0.0 | 0.00 | 0.13 | 0.06 | 90 | 1013.1 |
| 20260904163059 | 55 | 0 | 0.0 | 0.0 | 0.00 | 0.13 | 0.06 | 89 | 1013.1 |
| 20260904161553 | 55 | 0 | 0.0 | 0.0 | 0.00 | 0.13 | 0.06 | 90 | 1012.9 |
| 20260904160059 | 54 | 0 | 0.0 | 0.0 | 0.00 | 0.13 | 0.06 | 92 | 1013.1 |
| 20260904154600 | 54 | 0 | 0.0 | 2.6 | 0.00 | 0.15 | 0.06 | 92 | 1013.1 |
| 20260904153138 | 53 | 142 | 0.0 | 4.3 | 0.00 | 0.15 | 0.06 | 92 | 1012.9 |
| 20260904151601 | 53 | 175 | 1.7 | 4.3 | 0.00 | 0.15 | 0.06 | 93 | 1012.8 |
| 20260904150053 | 53 | 0 | 0.0 | 0.9 | 0.00 | 0.15 | 0.06 | 93 | 1012.5 |
| 20260904144555 | 53 | 0 | 0.0 | 1.7 | 0.00 | 0.17 | 0.06 | 93 | 1012.5 |
| 20260904143051 | 52 | 0 | 0.0 | 1.7 | 0.00 | 0.17 | 0.06 | 93 | 1012.5 |
| 20260904141601 | 52 | 194 | 0.9 | 3.5 | 0.00 | 0.17 | 0.06 | 93 | 1012.3 |
| 20260904140057 | 52 | 0 | 0.0 | 2.6 | 0.00 | 0.17 | 0.06 | 93 | 1012.0 |
| 20260904134555 | 52 | 0 | 0.0 | 0.0 | 0.00 | 0.17 | 0.06 | 93 | 1012.0 |
| 20260904133058 | 52 | 0 | 0.0 | 0.0 | 0.01 | 0.17 | 0.06 | 93 | 1011.8 |
| 20260904131616 | 52 | 0 | 0.0 | 0.0 | 0.02 | 0.17 | 0.06 | 93 | 1011.8 |
| 20260904130052 | 52 | 0 | 0.9 | 2.6 | 0.02 | 0.17 | 0.06 | 93 | 1011.5 |
| 20260904124553 | 52 | 0 | 0.0 | 0.0 | 0.03 | 0.17 | 0.06 | 92 | 1011.3 |
| 20260904123055 | 52 | 0 | 0.0 | 0.0 | 0.03 | 0.16 | 0.05 | 92 | 1011.4 |
| 20260904121549 | 52 | 0 | 0.0 | 0.0 | 0.03 | 0.15 | 0.04 | 92 | 1011.3 |
| 20260904120052 | 52 | 0 | 0.0 | 0.0 | 0.03 | 0.15 | 0.04 | 92 | 1011.5 |
| 20260904114555 | 52 | 181 | 0.0 | 1.7 | 0.02 | 0.14 | 0.03 | 92 | 1011.3 |
| 20260904113059 | 52 | 172 | 0.9 | 2.6 | 0.01 | 0.13 | 0.02 | 92 | 1011.2 |
| 20260904111553 | 52 | 135 | 0.0 | 1.7 | 0.00 | 0.12 | 0.01 | 92 | 1011.1 |
| 20260904110053 | 52 | 165 | 0.9 | 3.5 | 0.00 | 0.12 | 0.01 | 92 | 1011.1 |
| 20260904104602 | 52 | 0 | 0.0 | 1.7 | 0.00 | 0.12 | 0.01 | 93 | 1011.0 |
| 20260904103103 | 52 | 0 | 0.9 | 2.6 | 0.00 | 0.12 | 0.01 | 93 | 1010.9 |
| 20260904101558 | 52 | 0 | 0.0 | 0.0 | 0.00 | 0.12 | 0.01 | 93 | 1010.8 |
| 20260904100052 | 52 | 0 | 0.0 | 0.0 | 0.00 | 0.12 | 0.01 | 91 | 1010.7 |
| 20260904094553 | 52 | 0 | 0.0 | 0.0 | 0.00 | 0.13 | 0.01 | 91 | 1010.7 |
| 20260904093103 | 52 | 0 | 0.0 | 0.0 | 0.00 | 0.13 | 0.01 | 91 | 1010.6 |
| 20260904091604 | 53 | 0 | 0.0 | 0.0 | 0.00 | 0.13 | 0.01 | 91 | 1010.5 |
| 20260904090049 | 53 | 0 | 0.0 | 0.0 | 0.00 | 0.13 | 0.01 | 91 | 1010.5 |
| 20260904084553 | 53 | 0 | 0.0 | 0.0 | 0.00 | 0.14 | 0.01 | 91 | 1010.5 |
| 20260904083106 | 54 | 0 | 0.0 | 0.0 | 0.00 | 0.14 | 0.01 | 91 | 1010.5 |
| 20260904081553 | 54 | 0 | 0.0 | 0.0 | 0.00 | 0.14 | 0.01 | 91 | 1010.5 |
| 20260904080052 | 54 | 0 | 0.0 | 0.9 | 0.01 | 0.14 | 0.01 | 90 | 1010.4 |
| 20260904074603 | 54 | 0 | 0.0 | 2.6 | 0.01 | 0.15 | 0.01 | 91 | 1010.4 |
| 20260904073051 | 55 | 169 | 0.0 | 1.7 | 0.01 | 0.15 | 0.01 | 91 | 1010.4 |
| 20260904071553 | 55 | 0 | 0.0 | 3.5 | 0.01 | 0.15 | 0.01 | 91 | 1010.5 |
| 20260904070112 | 55 | 0 | 0.0 | 0.0 | 0.00 | 0.14 | 0.00 | 92 | 1010.4 |
| 20260904064550 | 55 | 0 | 0.0 | 0.0 | 0.00 | 0.14 | 0.14 | 92 | 1010.4 |
| 20260904063103 | 55 | 0 | 0.0 | 0.0 | 0.00 | 0.14 | 0.14 | 92 | 1010.6 |
| 20260904061552 | 55 | 0 | 0.0 | 0.0 | 0.00 | 0.14 | 0.14 | 92 | 1010.6 |
| 20260904060056 | 55 | 0 | 0.0 | 0.0 | 0.00 | 0.14 | 0.14 | 93 | 1010.6 |
| 20260904054554 | 55 | 0 | 0.0 | 0.0 | 0.00 | 0.14 | 0.14 | 93 | 1010.7 |
| 20260904053054 | 55 | 0 | 0.0 | 0.0 | 0.00 | 0.14 | 0.14 | 93 | 1010.7 |
| 20260904051554 | 55 | 0 | 0.0 | 0.0 | 0.00 | 0.14 | 0.14 | 93 | 1010.7 |
| 20260904050056 | 55 | 0 | 0.0 | 2.6 | 0.00 | 0.14 | 0.14 | 92 | 1010.8 |
| 20260904044603 | 55 | 0 | 0.0 | 0.0 | 0.00 | 0.14 | 0.14 | 92 | 1010.7 |
| 20260904043057 | 56 | 0 | 0.0 | 0.0 | 0.00 | 0.14 | 0.14 | 92 | 1010.8 |
| 20260904041559 | 56 | 0 | 0.0 | 0.0 | 0.00 | 0.14 | 0.14 | 92 | 1010.6 |
| 20260904040109 | 56 | 0 | 0.9 | 2.6 | 0.00 | 0.14 | 0.14 | 92 | 1010.7 |
| 20260904034554 | 56 | 0 | 0.0 | 0.0 | 0.00 | 0.14 | 0.14 | 92 | 1010.5 |
| 20260904033051 | 56 | 0 | 0.0 | 0.0 | 0.00 | 0.14 | 0.14 | 92 | 1010.4 |
| 20260904031550 | 57 | 0 | 0.0 | 0.9 | 0.00 | 0.14 | 0.14 | 91 | 1010.2 |
| 20260904030052 | 56 | 0 | 0.0 | 0.9 | 0.00 | 0.14 | 0.14 | 91 | 1009.9 |
| 20260904024555 | 57 | 0 | 0.0 | 0.0 | 0.00 | 0.14 | 0.14 | 90 | 1010.0 |
| 20260904023053 | 57 | 0 | 0.0 | 0.9 | 0.00 | 0.14 | 0.14 | 90 | 1010.0 |
| 20260904021549 | 57 | 0 | 0.0 | 0.0 | 0.00 | 0.14 | 0.14 | 91 | 1009.9 |
| 20260904020054 | 57 | 0 | 0.0 | 2.6 | 0.00 | 0.14 | 0.14 | 90 | 1009.9 |
| 20260904014638 | 57 | 0 | 0.0 | 1.7 | 0.00 | 0.15 | 0.14 | 90 | 1010.1 |
| 20260904013054 | 57 | 102 | 0.0 | 2.6 | 0.00 | 0.15 | 0.14 | 90 | 1010.3 |
| 20260904011553 | 57 | 113 | 0.9 | 2.6 | 0.00 | 0.15 | 0.14 | 90 | 1010.2 |
| 20260904004554 | 57 | 101 | 0.9 | 2.6 | 0.01 | 0.20 | 0.14 | 91 | 1010.2 |
| 20260904003101 | 57 | 0 | 0.0 | 0.0 | 0.01 | 0.20 | 0.14 | 91 | 1010.5 |
| 20260904001551 | 57 | 0 | 0.0 | 0.0 | 0.07 | 0.20 | 0.14 | 88 | 1010.4 |
| 20260903234559 | 56 | 0 | 0.0 | 1.7 | 0.06 | 0.35 | 0.13 | 90 | 1010.3 |